Regional Weather Roundup
Issued by NWS

Home | Current Version | Previous Version | Graphics & Text | Print | Product List | Glossary On
Versions: 1 2 3 4 5 6 7 8 9 10 11 12 13 14 15 16 17 18 19 20 21 22 23 24 25 26 27 28 29 30 31 32 33 34 35 36 37 38 39 40 41 42 43 44 45 46 47 48 49 50
000
ASUS45 KABQ 031101
RWRNM
WEATHER ROUNDUP FOR NEW MEXICO
NATIONAL WEATHER SERVICE ALBUQUERQUE NM
400 AM MST TUE MAR 03 2015

NOTE: "FAIR" MEANS FEW OR NO CLOUDS BELOW 12,000 FEET AGL WITH NO
       SIGNIFICANT WEATHER OR OBSTRUCTIONS TO VISION.

      THIS PRODUCT IS RELEASED AS TWO VERSIONS.  ONE VERSION NEAR
      THE TOP OF THE HOUR CONTAINING PRELIMINARY DATA FROM ALBUQUERQUE
      AND OTHER STATIONS.  A FINAL VERSION WITH ADDITIONAL DATA IS
      ISSUED ABOUT 10 MINUTES AFTER THE HOUR.

NMZ501-503-504-510>518-031200-
NORTHWEST PLATEAU/NORTHCENTRAL MOUNTAINS

CITY           SKY/WX    TMP DP  RH WIND       PRES   REMARKS
FARMINGTON     CLEAR     31  26  82 CALM      29.91R
SANTA FE       CLOUDY    34  30  85 SW6       29.90F WCI  29
TAOS           CLOUDY    30  21  69 W7        29.89F WCI  23
ANGEL FIRE     FAIR      28  20  69 SW15G28   29.84F WCI  17

$$
NMZ402-403-502-505>509-031200-
WESTCENTRAL MOUNTAINS/SOUTHWEST MOUNTAINS

CITY           SKY/WX    TMP DP  RH WIND       PRES   REMARKS
GALLUP         CLOUDY    32  27  81 W6        29.94F WCI  26
SILVER CITY    CLOUDY    41  39  93 NW8       29.94R

$$
NMZ407-409-411-412-031200-
SOUTHERN DESERTS

CITY           SKY/WX    TMP DP  RH WIND       PRES   REMARKS
DEMING         LGT RAIN  47  43  86 SW5       29.92R
HOLLOMAN AFB   CLOUDY    54  46  74 CALM      29.87F
ALAMOGORDO     CLOUDY    54  46  76 S7        29.89S
T OR C         CLOUDY    48  40  73 N5        29.88F

$$
NMZ519>523-031200-
CENTRAL VALLEYS/CENTRAL HIGHLANDS

CITY           SKY/WX    TMP DP  RH WIND       PRES   REMARKS
ALBUQUERQUE    CLOUDY    42  29  59 SW8       29.93S
DOUBLE EAGLE   CLOUDY    37  31  78 SW7       29.93R WCI  31
MORIARTY ARPT  CLOUDY    36  30  79 SW8       29.93S WCI  30
CLINES CORNERS CLOUDY    32  30  92 W10       29.87F WCI  24
BELEN          CLOUDY    40  36  85 SE3       29.94R
SOCORRO        NOT AVBL

$$
NMZ524>526-539-540-031200-
SOUTHCENTRAL MOUNTAINS

CITY           SKY/WX    TMP DP  RH WIND       PRES   REMARKS
RUIDOSO        NOT AVBL

$$
NMZ527>531-031200-
NORTHEAST HIGHLANDS/NORTHEAST PLAINS

CITY           SKY/WX    TMP DP  RH WIND       PRES   REMARKS
LAS VEGAS      PTCLDY    35  22  58 W18       29.83R WCI  24
RATON          PTCLDY    37  23  56 SW16G29   29.75F WCI  28
CLAYTON        CLEAR     41  27  57 W21       29.75R

$$
NMZ532>537-031200-
EASTCENTRAL PLAINS

CITY           SKY/WX    TMP DP  RH WIND       PRES   REMARKS
TUCUMCARI      MOCLDY    37  34  89 S10       29.82F WCI  30
CANNON AFB     MOCLDY    34  33  96 W8        29.86R WCI  28
CLOVIS AIRPORT MOCLDY    34  32  93 SW8       29.86F WCI  27

$$
NMZ028-029-538-031200-
SOUTHEAST PLAINS

CITY           SKY/WX    TMP DP  RH WIND       PRES   REMARKS
ROSWELL        FOG       36  35  96 S7        29.87F VSB 3/4 WCI  30
ARTESIA        FOG       37  37 100 SE14      29.88F VSB 1   WCI  29
CARLSBAD       CLOUDY    39  37  92 SE9       29.89S FOG     WCI  33
HOBBS          FOG       37  37 100 S6        29.91F VSB 1/2 WCI  33


$$



USA.gov is the U.S. government's official web portal to all federal, state and local government web resources and services.